Location: Las Callecitas
(9.8750°N, 67.4611°W)
Time: 04:31:09
(UTC+00:00)

Cosmos 1943 Rocket - Visible Passes

Search period start: 25 July 2024 00:00
Search period end: 04 August 2024 00:00
Orbit: 812 x 843 km, 71.0° (Epoch: 24 July)

Date Brightness Start Highest point End Pass type
(mag) Time Alt. Az. Time Alt. Az. Time Alt. Az.
25 Jul 2.4 00:04:50 10° S 00:10:12 45° ESE 00:15:33 10° NNE visible
25 Jul 5.0 01:51:26 10° W 01:53:48 13° WNW 01:56:11 10° NW visible
25 Jul 2.6 23:45:37 10° S 23:50:47 38° ESE 23:55:57 10° NE visible
26 Jul 4.9 01:31:07 10° WSW 01:34:21 15° WNW 01:37:35 10° NW visible
26 Jul 2.9 23:26:27 10° SSE 23:31:23 31° ESE 23:36:18 10° NE visible
27 Jul 4.7 01:11:04 10° WSW 01:14:54 19° WNW 01:18:44 10° NNW visible
28 Jul 4.5 00:51:09 10° WSW 00:55:27 22° WNW 00:59:45 10° NNW visible
29 Jul 4.3 00:31:21 10° SW 00:36:01 27° WNW 00:40:41 10° NNW visible
30 Jul 4.0 00:11:36 10° SW 00:16:35 32° WNW 00:21:31 10° N visible
30 Jul 3.8 23:51:56 10° SW 23:57:09 38° WNW 00:02:19 10° N visible
31 Jul 3.5 23:32:21 10° SW 23:37:43 45° WNW 23:43:04 10° N visible
01 Aug 3.1 23:12:46 10° SSW 23:18:17 55° WNW 23:23:46 10° N visible
03 Aug 3.2 09:46:33 10° N 09:51:52 52° ENE 09:57:11 10° SSE visible
